Theta_e
330 330 330 331 332 334 334 337 334 332 333 331 328 330 328 329 343 341 339 338 336 334
325 326 326 328 329 330 331 336 337 332 328 328 329 325 323 326 340 342 342 340 336 333
321 324 324 325 325 326 327 330 334 334 331 326 326 323 323 329 338 340 341 342 336 334
316 318 320 320 322 323 323 326 327 332 334 333 327 326 325 330 334 333 338 339 334 335
315 317 316 316 317 320 320 322 325 327 328 330 335 329 327 326 328 331 332 336 335 336
312 312 313 314 316 317 317 318 320 322 324 326 329 333 329 325 325 331 332 331 332 334
309 310 310 312 313 315 316 316 316 318 321 324 324 328 331 332 330 330 329 327 326 327
309 310 310 310 310 312 314 315 316 316 317 318 320 327 325 326 328 328 328 326 327 327
309 310 310 310 310 309 309 311 315 314 315 314 318 311 311 320 323 324 325 327 328 324
307 307 306 307 307 306 305 307 308 310 310 309 311 307 305 307 318 320 321 323 323 326
304 304 305 305 304 304 304 303 304 306 308 308 310 306 305 304 309 317 319 321 323 323
302 301 302 301 301 302 303 304 304 305 304 306 306 306 303 303 309 312 315 319 320 324
299 298 297 298 298 299 299 300 301 302 304 305 304 303 302 301 308 308 310 314 317 310
298 298 297 297 297 297 296 297 297 297 299 302 304 303 302 300 303 307 310 311 313 315
Wind_Speed
8 5 4 5 6 6 6 6 7 6 5 5 17 20 12 11 12 5 4 8 5 4
6 6 5 7 5 4 5 5 4 2 3 6 14 20 16 8 12 6 5 7 6 4
7 7 6 6 7 7 6 7 6 6 4 6 8 12 12 9 7 6 5 5 6 6
7 7 7 6 6 6 5 6 6 5 5 3 11 12 11 12 10 5 7 6 6 8
6 7 7 7 7 6 5 4 4 5 5 5 5 14 9 10 4 6 9 12 9 11
6 6 7 7 7 7 6 4 4 4 4 6 6 1 8 7 6 7 15 7 10 7
7 6 7 7 6 6 6 5 4 3 3 3 5 3 3 6 10 17 15 8 2 4
6 7 8 8 8 6 4 5 4 3 4 4 3 2 2 2 1 2 8 8 6 5
7 7 7 8 10 8 7 6 3 3 3 3 4 6 6 4 4 4 5 8 10 16
11 8 8 6 7 8 7 9 8 3 3 3 2 1 7 7 4 5 6 6 5 8
11 12 12 11 9 8 5 5 5 7 6 3 4 3 4 9 5 7 7 7 6 11
12 12 12 11 10 10 10 10 9 7 6 3 5 8 3 0 6 4 8 7 6 8
10 11 12 11 11 9 10 11 10 11 10 8 5 6 7 5 3 7 7 7 8 11
12 12 11 12 11 11 12 12 12 13 12 11 7 7 11 12 6 6 7 8 5 5
Wind_Direction
41 45 42 28 18 23 28 351 342 342 289 148 157 191 223 261 281 193 213 241 234 248
36 37 32 21 17 24 26 21 13 315 326 181 193 191 211 246 264 222 199 232 243 226
25 27 23 23 14 20 27 17 22 41 158 245 231 209 221 257 272 276 232 232 238 239
4 8 10 10 355 359 25 29 18 25 38 204 226 226 233 241 248 257 303 276 228 236
7 357 356 347 336 340 354 14 29 19 3 10 32 233 244 233 274 316 292 277 249 235
347 352 330 325 323 326 343 8 10 22 27 359 0 93 230 238 217 249 258 260 316 283
325 318 306 304 312 318 322 338 347 335 29 47 6 352 348 225 237 239 233 247 222 348
299 299 295 290 287 286 298 302 323 348 1 11 14 305 337 341 284 214 253 227 231 211
319 307 308 329 320 312 312 288 166 114 90 22 325 191 224 222 248 257 238 273 274 203
358 359 341 339 340 344 360 356 330 292 151 152 137 205 255 259 256 239 263 269 246 216
354 345 341 337 330 328 335 344 329 330 300 221 225 198 265 293 244 262 246 256 247 218
342 337 333 331 327 322 327 331 319 308 293 298 272 241 223 344 313 288 274 256 247 212
331 323 319 315 316 321 321 313 311 309 309 287 263 245 270 204 239 288 287 268 258 220
315 308 305 311 311 310 306 304 304 300 296 290 275 255 248 226 218 243 264 271 245 252